User: anonymous   Login
Location: Unspecified
(0.0000°N, 0.0000°E)
Time: 10:40:21
(UTC+00:00)
Language:

NATO 4A - Orbit

View from above orbital plane
View from above orbital plane
View from above satellite
View from above satellite

Ground track
Ground track

The orbit data is extracted from the following two-line orbital elements,

1 21047U 91001A   18018.84632635 -.00000164 +00000-0 +00000-0 0  9992
2 21047 013.1655 015.3331 0004736 236.7902 296.9093 00.98284322097936
Epoch (UTC): 18 January 2018 20:18:42
Eccentricity: 0.0004736
inclination: 13.1655°
perigee height: 36332 km
apogee height: 36373 km
right ascension of ascending node: 15.3331°
argument of perigee: 236.7902°
revolutions per day: 0.98284322
mean anomaly at epoch: 296.9093°
orbit number at epoch: 9793

The dashed part of the orbit path shows where the satellite is in the earth's shadow,  

DLR